Time,TemperatureF,DewpointF,PressureIn,WindDirection,WindDirectionDegrees,WindSpeedMPH,WindSpeedGustMPH,Humidity,HourlyPrecipIn,Conditions,Clouds,dailyrainin,SoftwareType,DateUTC
2013-07-18 00:01:00,75.3,71.8,29.95,NE,52,0.0,0.0,89,0.00,,,0.00,Wunderground v.1.15,2013-07-18 04:01:00,
2013-07-18 00:02:00,75.4,71.9,29.95,NE,52,0.0,0.0,89,0.00,,,0.00,Wunderground v.1.15,2013-07-18 04:02:00,
2013-07-18 00:03:00,75.4,71.9,29.95,NE,52,0.0,0.0,89,0.00,,,0.00,Wunderground v.1.15,2013-07-18 04:03:00,
2013-07-18 00:05:00,75.3,71.8,29.95,NE,52,0.0,0.0,89,0.00,,,0.00,Wunderground v.1.15,2013-07-18 04:05:00,
2013-07-18 00:06:00,75.3,71.8,29.95,NE,52,0.0,0.0,89,0.00,,,0.00,Wunderground v.1.15,2013-07-18 04:06:00,
2013-07-18 00:11:00,75.1,71.6,29.96,NE,52,0.0,0.0,89,0.00,,,0.00,Wunderground v.1.15,2013-07-18 04:11:00,
2013-07-18 00:16:00,74.9,72.1,29.96,NE,52,0.0,0.0,91,0.00,,,0.00,Wunderground v.1.15,2013-07-18 04:16:00,
2013-07-18 00:22:00,74.6,71.8,29.96,NE,52,0.0,0.0,91,0.00,,,0.00,Wunderground v.1.15,2013-07-18 04:22:00,
2013-07-18 00:27:00,74.6,70.8,29.96,NE,52,0.0,0.0,88,0.00,,,0.00,Wunderground v.1.15,2013-07-18 04:27:00,
2013-07-18 00:32:00,74.9,71.1,29.96,NE,52,0.0,0.0,88,0.00,,,0.00,Wunderground v.1.15,2013-07-18 04:32:00,
2013-07-18 00:37:00,74.7,71.2,29.96,NE,52,0.0,0.0,89,0.00,,,0.00,Wunderground v.1.15,2013-07-18 04:37:00,
2013-07-18 00:42:00,74.4,70.9,29.96,NE,52,0.0,0.0,89,0.00,,,0.00,Wunderground v.1.15,2013-07-18 04:42:00,
2013-07-18 00:48:00,74.2,71.4,29.96,NE,52,0.0,0.0,91,0.00,,,0.00,Wunderground v.1.15,2013-07-18 04:48:00,
2013-07-18 00:53:00,73.9,71.1,29.96,NE,52,0.0,0.0,91,0.00,,,0.00,Wunderground v.1.15,2013-07-18 04:53:00,
2013-07-18 00:59:00,73.7,70.9,29.96,NE,52,0.0,0.0,91,0.00,,,0.00,Wunderground v.1.15,2013-07-18 04:59:00,
2013-07-18 01:05:00,73.5,71.0,29.96,NE,52,0.0,0.0,92,0.00,,,0.00,Wunderground v.1.15,2013-07-18 05:05:00,
2013-07-18 01:11:00,73.3,70.8,29.96,NE,52,0.0,0.0,92,0.00,,,0.00,Wunderground v.1.15,2013-07-18 05:11:00,
2013-07-18 01:16:00,73.2,71.1,29.96,NE,52,0.0,0.0,93,0.00,,,0.00,Wunderground v.1.15,2013-07-18 05:16:00,
2013-07-18 01:22:00,73.2,71.1,29.96,NE,50,0.0,0.0,93,0.00,,,0.00,Wunderground v.1.15,2013-07-18 05:22:00,
2013-07-18 01:27:00,73.0,70.9,29.96,NE,50,0.0,0.0,93,0.00,,,0.00,Wunderground v.1.15,2013-07-18 05:27:00,
2013-07-18 01:32:00,72.8,71.0,29.96,NE,50,0.0,0.0,94,0.00,,,0.00,Wunderground v.1.15,2013-07-18 05:32:00,
2013-07-18 01:37:00,72.8,71.0,29.96,NE,50,1.0,1.0,94,0.00,,,0.00,Wunderground v.1.15,2013-07-18 05:37:00,
2013-07-18 01:43:00,73.5,70.7,29.95,NE,46,1.0,2.0,91,0.00,,,0.00,Wunderground v.1.15,2013-07-18 05:43:00,
2013-07-18 01:49:00,74.0,71.2,29.95,NE,46,0.0,2.0,91,0.00,,,0.00,Wunderground v.1.15,2013-07-18 05:49:00,
2013-07-18 01:55:00,74.2,70.7,29.96,NE,46,0.0,1.0,89,0.00,,,0.00,Wunderground v.1.15,2013-07-18 05:55:00,
2013-07-18 02:00:00,74.2,70.7,29.96,NE,46,0.0,1.0,89,0.00,,,0.00,Wunderground v.1.15,2013-07-18 06:00:00,
2013-07-18 02:06:00,74.0,70.6,29.96,NE,46,0.0,0.0,89,0.00,,,0.00,Wunderground v.1.15,2013-07-18 06:06:00,
2013-07-18 02:11:00,73.9,70.8,29.95,NE,46,0.0,0.0,90,0.00,,,0.00,Wunderground v.1.15,2013-07-18 06:11:00,
2013-07-18 02:16:00,73.7,70.9,29.95,NE,46,0.0,0.0,91,0.00,,,0.00,Wunderground v.1.15,2013-07-18 06:16:00,
2013-07-18 02:21:00,73.7,70.9,29.95,NE,46,0.0,0.0,91,0.00,,,0.00,Wunderground v.1.15,2013-07-18 06:21:00,
2013-07-18 02:26:00,73.3,70.5,29.95,NE,46,0.0,0.0,91,0.00,,,0.00,Wunderground v.1.15,2013-07-18 06:26:00,
2013-07-18 02:31:00,73.3,71.5,29.95,NE,46,0.0,0.0,94,0.00,,,0.00,Wunderground v.1.15,2013-07-18 06:31:00,
2013-07-18 02:36:00,73.3,71.5,29.95,NE,46,0.0,0.0,94,0.00,,,0.00,Wunderground v.1.15,2013-07-18 06:36:00,
2013-07-18 02:41:00,73.3,71.5,29.95,NE,46,0.0,0.0,94,0.00,,,0.00,Wunderground v.1.15,2013-07-18 06:41:00,
2013-07-18 02:46:00,73.3,71.5,29.95,NE,46,0.0,0.0,94,0.00,,,0.00,Wunderground v.1.15,2013-07-18 06:46:00,
2013-07-18 02:51:00,73.0,71.2,29.95,NE,46,0.0,0.0,94,0.00,,,0.00,Wunderground v.1.15,2013-07-18 06:51:00,
2013-07-18 02:56:00,72.7,71.2,29.94,NE,46,0.0,0.0,95,0.00,,,0.00,Wunderground v.1.15,2013-07-18 06:56:00,
2013-07-18 03:01:00,72.5,71.0,29.94,NE,46,0.0,0.0,95,0.00,,,0.00,Wunderground v.1.15,2013-07-18 07:01:00,
2013-07-18 03:07:00,72.5,71.3,29.94,NE,46,0.0,0.0,96,0.00,,,0.00,Wunderground v.1.15,2013-07-18 07:07:00,
2013-07-18 03:12:00,72.1,70.9,29.94,NE,46,0.0,0.0,96,0.00,,,0.00,Wunderground v.1.15,2013-07-18 07:12:00,
2013-07-18 03:17:00,72.1,70.9,29.94,NE,46,0.0,0.0,96,0.00,,,0.00,Wunderground v.1.15,2013-07-18 07:17:00,
2013-07-18 03:22:00,72.1,70.9,29.94,NE,46,0.0,0.0,96,0.00,,,0.00,Wunderground v.1.15,2013-07-18 07:22:00,
2013-07-18 03:27:00,72.0,70.8,29.94,NE,46,0.0,0.0,96,0.00,,,0.00,Wunderground v.1.15,2013-07-18 07:27:00,
2013-07-18 03:33:00,71.8,70.6,29.94,NE,46,0.0,0.0,96,0.00,,,0.00,Wunderground v.1.15,2013-07-18 07:33:00,
2013-07-18 03:38:00,71.6,70.4,29.94,NE,46,0.0,0.0,96,0.00,,,0.00,Wunderground v.1.15,2013-07-18 07:38:00,
2013-07-18 03:43:00,71.5,70.6,29.94,NE,46,0.0,0.0,97,0.00,,,0.00,Wunderground v.1.15,2013-07-18 07:43:00,
2013-07-18 03:48:00,71.5,70.6,29.94,NE,46,0.0,0.0,97,0.00,,,0.00,Wunderground v.1.15,2013-07-18 07:48:00,
2013-07-18 03:53:00,71.5,70.6,29.94,NE,46,0.0,0.0,97,0.00,,,0.00,Wunderground v.1.15,2013-07-18 07:53:00,
2013-07-18 03:58:00,71.5,70.6,29.94,NE,46,0.0,0.0,97,0.00,,,0.00,Wunderground v.1.15,2013-07-18 07:58:00,
2013-07-18 04:03:00,71.3,70.4,29.94,NE,46,0.0,0.0,97,0.00,,,0.00,Wunderground v.1.15,2013-07-18 08:03:00,
2013-07-18 04:08:00,71.3,70.4,29.94,NE,46,0.0,0.0,97,0.00,,,0.00,Wunderground v.1.15,2013-07-18 08:08:00,
2013-07-18 04:13:00,71.3,70.4,29.94,NE,46,0.0,0.0,97,0.00,,,0.00,Wunderground v.1.15,2013-07-18 08:13:00,
2013-07-18 04:18:00,71.3,70.7,29.94,NE,46,0.0,0.0,98,0.00,,,0.00,Wunderground v.1.15,2013-07-18 08:18:00,
2013-07-18 04:23:00,71.3,70.4,29.94,NE,46,0.0,0.0,97,0.00,,,0.00,Wunderground v.1.15,2013-07-18 08:23:00,
2013-07-18 04:29:00,71.3,70.4,29.93,NE,46,0.0,0.0,97,0.00,,,0.00,Wunderground v.1.15,2013-07-18 08:29:00,
2013-07-18 04:34:00,71.1,70.5,29.93,NE,46,0.0,0.0,98,0.00,,,0.00,Wunderground v.1.15,2013-07-18 08:34:00,
2013-07-18 04:39:00,71.3,70.7,29.93,NE,46,0.0,0.0,98,0.00,,,0.00,Wunderground v.1.15,2013-07-18 08:39:00,
2013-07-18 04:44:00,71.3,70.7,29.94,NE,46,0.0,0.0,98,0.00,,,0.00,Wunderground v.1.15,2013-07-18 08:44:00,
2013-07-18 04:49:00,71.3,70.7,29.94,NE,46,0.0,0.0,98,0.00,,,0.00,Wunderground v.1.15,2013-07-18 08:49:00,
2013-07-18 04:54:00,71.1,70.5,29.94,NE,46,0.0,0.0,98,0.00,,,0.00,Wunderground v.1.15,2013-07-18 08:54:00,
2013-07-18 05:00:00,70.9,70.0,29.95,NE,46,0.0,0.0,97,0.00,,,0.00,Wunderground v.1.15,2013-07-18 09:00:00,
2013-07-18 05:05:00,70.8,69.9,29.95,NE,46,0.0,0.0,97,0.00,,,0.00,Wunderground v.1.15,2013-07-18 09:05:00,
2013-07-18 05:10:00,70.8,70.2,29.95,NE,46,0.0,0.0,98,0.00,,,0.00,Wunderground v.1.15,2013-07-18 09:10:00,
2013-07-18 05:15:00,70.4,69.8,29.95,NE,46,0.0,0.0,98,0.00,,,0.00,Wunderground v.1.15,2013-07-18 09:15:00,
2013-07-18 05:20:00,70.4,69.8,29.95,NE,46,0.0,0.0,98,0.00,,,0.00,Wunderground v.1.15,2013-07-18 09:20:00,
2013-07-18 05:26:00,70.4,69.8,29.95,NE,46,0.0,0.0,98,0.00,,,0.00,Wunderground v.1.15,2013-07-18 09:26:00,
2013-07-18 05:31:00,70.3,69.7,29.95,NE,46,0.0,0.0,98,0.00,,,0.00,Wunderground v.1.15,2013-07-18 09:31:00,
2013-07-18 05:36:00,70.1,69.5,29.95,NE,46,0.0,0.0,98,0.00,,,0.00,Wunderground v.1.15,2013-07-18 09:36:00,
2013-07-18 05:41:00,70.1,69.5,29.95,NE,46,0.0,0.0,98,0.00,,,0.00,Wunderground v.1.15,2013-07-18 09:41:00,
2013-07-18 05:46:00,70.1,69.8,29.95,NE,46,0.0,0.0,99,0.00,,,0.00,Wunderground v.1.15,2013-07-18 09:46:00,
2013-07-18 05:51:00,69.8,69.2,29.95,NE,46,0.0,0.0,98,0.00,,,0.00,Wunderground v.1.15,2013-07-18 09:51:00,
2013-07-18 05:56:00,69.8,69.5,29.96,NE,46,0.0,0.0,99,0.00,,,0.00,Wunderground v.1.15,2013-07-18 09:56:00,
2013-07-18 06:01:00,69.9,69.6,29.96,NE,46,0.0,0.0,99,0.00,,,0.00,Wunderground v.1.15,2013-07-18 10:01:00,
2013-07-18 06:07:00,70.3,70.0,29.96,NE,46,0.0,0.0,99,0.00,,,0.00,Wunderground v.1.15,2013-07-18 10:07:00,
2013-07-18 06:12:00,70.3,70.0,29.97,NE,46,0.0,0.0,99,0.00,,,0.00,Wunderground v.1.15,2013-07-18 10:12:00,
2013-07-18 06:17:00,70.3,70.0,29.97,NE,46,0.0,0.0,99,0.00,,,0.00,Wunderground v.1.15,2013-07-18 10:17:00,
2013-07-18 06:22:00,70.3,70.0,29.97,NE,46,0.0,0.0,99,0.00,,,0.00,Wunderground v.1.15,2013-07-18 10:22:00,
2013-07-18 06:27:00,70.3,70.0,29.97,NE,46,0.0,0.0,99,0.00,,,0.00,Wunderground v.1.15,2013-07-18 10:27:00,
2013-07-18 06:32:00,70.3,70.0,29.97,NE,46,0.0,0.0,99,0.00,,,0.00,Wunderground v.1.15,2013-07-18 10:32:00,
2013-07-18 06:37:00,70.4,70.1,29.97,NE,46,0.0,0.0,99,0.00,,,0.00,Wunderground v.1.15,2013-07-18 10:37:00,
2013-07-18 06:42:00,70.6,70.3,29.97,NE,46,0.0,0.0,99,0.00,,,0.00,Wunderground v.1.15,2013-07-18 10:42:00,
2013-07-18 06:48:00,70.8,70.5,29.97,NE,46,0.0,0.0,99,0.00,,,0.00,Wunderground v.1.15,2013-07-18 10:48:00,
2013-07-18 06:53:00,70.9,70.6,29.97,NE,46,0.0,0.0,99,0.00,,,0.00,Wunderground v.1.15,2013-07-18 10:53:00,
2013-07-18 06:58:00,71.1,70.8,29.97,NE,46,0.0,0.0,99,0.00,,,0.00,Wunderground v.1.15,2013-07-18 10:58:00,
2013-07-18 07:03:00,71.5,71.2,29.97,NE,46,0.0,0.0,99,0.00,,,0.00,Wunderground v.1.15,2013-07-18 11:03:00,
2013-07-18 07:08:00,71.6,71.3,29.97,NE,46,0.0,0.0,99,0.00,,,0.00,Wunderground v.1.15,2013-07-18 11:08:00,
2013-07-18 07:13:00,72.0,71.7,29.98,NE,46,0.0,0.0,99,0.00,,,0.00,Wunderground v.1.15,2013-07-18 11:13:00,
2013-07-18 07:18:00,72.3,71.7,29.98,NE,46,0.0,0.0,98,0.00,,,0.00,Wunderground v.1.15,2013-07-18 11:18:00,
2013-07-18 07:23:00,72.7,72.1,29.98,NE,46,0.0,0.0,98,0.00,,,0.00,Wunderground v.1.15,2013-07-18 11:23:00,
2013-07-18 07:29:00,73.2,72.6,29.98,NE,46,0.0,0.0,98,0.00,,,0.00,Wunderground v.1.15,2013-07-18 11:29:00,
2013-07-18 07:34:00,73.3,72.7,29.98,NE,46,0.0,0.0,98,0.00,,,0.00,Wunderground v.1.15,2013-07-18 11:34:00,
2013-07-18 07:39:00,73.7,72.8,29.98,NE,46,0.0,0.0,97,0.00,,,0.00,Wunderground v.1.15,2013-07-18 11:39:00,
2013-07-18 07:44:00,74.2,72.7,29.98,NE,46,0.0,0.0,95,0.00,,,0.00,Wunderground v.1.15,2013-07-18 11:44:00,
2013-07-18 07:49:00,74.6,72.8,29.98,NE,46,0.0,0.0,94,0.00,,,0.00,Wunderground v.1.15,2013-07-18 11:49:00,
2013-07-18 07:54:00,75.1,72.9,29.98,NE,46,0.0,0.0,93,0.00,,,0.00,Wunderground v.1.15,2013-07-18 11:54:00,
2013-07-18 07:59:00,75.4,72.9,29.98,NE,46,0.0,0.0,92,0.00,,,0.00,Wunderground v.1.15,2013-07-18 11:59:00,
2013-07-18 08:04:00,76.0,73.2,29.98,NE,46,0.0,0.0,91,0.00,,,0.00,Wunderground v.1.15,2013-07-18 12:04:00,
2013-07-18 08:09:00,76.3,73.1,29.98,NE,46,0.0,0.0,90,0.00,,,0.00,Wunderground v.1.15,2013-07-18 12:09:00,
2013-07-18 08:15:00,76.5,72.3,29.98,NE,46,0.0,0.0,87,0.00,,,0.00,Wunderground v.1.15,2013-07-18 12:15:00,
2013-07-18 08:20:00,76.5,72.7,29.98,NE,46,0.0,0.0,88,0.00,,,0.00,Wunderground v.1.15,2013-07-18 12:20:00,
2013-07-18 08:25:00,76.5,72.3,29.99,NE,46,0.0,0.0,87,0.00,,,0.00,Wunderground v.1.15,2013-07-18 12:25:00,
2013-07-18 08:30:00,76.5,72.0,29.99,NE,46,0.0,0.0,86,0.00,,,0.00,Wunderground v.1.15,2013-07-18 12:30:00,
2013-07-18 08:36:00,77.0,71.4,29.99,NE,46,0.0,0.0,83,0.00,,,0.00,Wunderground v.1.15,2013-07-18 12:36:00,
2013-07-18 08:41:00,77.4,72.5,29.99,NE,46,0.0,0.0,85,0.00,,,0.00,Wunderground v.1.15,2013-07-18 12:41:00,
2013-07-18 08:46:00,77.2,72.0,29.99,NE,46,0.0,0.0,84,0.00,,,0.00,Wunderground v.1.15,2013-07-18 12:46:00,
2013-07-18 08:51:00,77.4,72.2,29.99,NE,46,0.0,0.0,84,0.00,,,0.00,Wunderground v.1.15,2013-07-18 12:51:00,
2013-07-18 08:56:00,77.7,72.5,29.98,NE,46,0.0,0.0,84,0.00,,,0.00,Wunderground v.1.15,2013-07-18 12:56:00,
2013-07-18 09:01:00,77.9,72.0,29.98,NE,46,0.0,0.0,82,0.00,,,0.00,Wunderground v.1.15,2013-07-18 13:01:00,
2013-07-18 09:07:00,77.9,72.0,29.98,NE,46,0.0,0.0,82,0.00,,,0.00,Wunderground v.1.15,2013-07-18 13:07:00,
2013-07-18 09:12:00,78.5,72.5,29.98,NE,46,0.0,0.0,82,0.00,,,0.00,Wunderground v.1.15,2013-07-18 13:12:00,
2013-07-18 09:17:00,78.3,72.7,29.98,NE,46,0.0,0.0,83,0.00,,,0.00,Wunderground v.1.15,2013-07-18 13:17:00,
2013-07-18 09:23:00,78.5,72.2,29.98,NE,45,0.0,1.0,81,0.00,,,0.00,Wunderground v.1.15,2013-07-18 13:23:00,
2013-07-18 09:28:00,79.0,70.8,29.98,NE,45,0.0,0.0,76,0.00,,,0.00,Wunderground v.1.15,2013-07-18 13:28:00,
2013-07-18 09:33:00,79.4,71.2,29.98,NE,45,0.0,1.0,76,0.00,,,0.00,Wunderground v.1.15,2013-07-18 13:33:00,
2013-07-18 09:38:00,79.8,71.6,29.98,NE,45,0.0,0.0,76,0.00,,,0.00,Wunderground v.1.15,2013-07-18 13:38:00,
2013-07-18 09:43:00,79.9,71.7,29.98,NE,46,0.0,0.0,76,0.00,,,0.00,Wunderground v.1.15,2013-07-18 13:43:00,
2013-07-18 09:48:00,79.9,73.5,29.98,NE,46,1.0,2.0,81,0.00,,,0.00,Wunderground v.1.15,2013-07-18 13:48:00,
2013-07-18 09:53:00,80.1,73.7,29.98,NNW,345,0.0,2.0,81,0.00,,,0.00,Wunderground v.1.15,2013-07-18 13:53:00,
2013-07-18 09:58:00,80.3,72.0,29.98,NNW,345,0.0,1.0,76,0.00,,,0.00,Wunderground v.1.15,2013-07-18 13:58:00,
2013-07-18 10:04:00,80.5,72.6,29.98,NNW,345,0.0,0.0,77,0.00,,,0.00,Wunderground v.1.15,2013-07-18 14:04:00,
2013-07-18 10:09:00,80.9,72.6,29.98,NNW,345,0.0,1.0,76,0.00,,,0.00,Wunderground v.1.15,2013-07-18 14:09:00,
2013-07-18 10:14:00,81.4,72.3,29.98,West,263,0.0,0.0,74,0.00,,,0.00,Wunderground v.1.15,2013-07-18 14:14:00,
2013-07-18 10:19:00,81.2,72.5,29.98,NNE,30,0.0,2.0,75,0.00,,,0.00,Wunderground v.1.15,2013-07-18 14:19:00,
2013-07-18 10:24:00,82.0,72.1,29.98,NNE,30,1.0,1.0,72,0.00,,,0.00,Wunderground v.1.15,2013-07-18 14:24:00,
2013-07-18 10:29:00,82.4,72.5,29.98,NNE,30,0.0,1.0,72,0.00,,,0.00,Wunderground v.1.15,2013-07-18 14:29:00,
2013-07-18 10:34:00,82.8,71.6,29.98,NNE,29,0.0,0.0,69,0.00,,,0.00,Wunderground v.1.15,2013-07-18 14:34:00,
2013-07-18 10:40:00,83.6,73.2,29.97,NNE,30,0.0,1.0,71,0.00,,,0.00,Wunderground v.1.15,2013-07-18 14:40:00,
2013-07-18 10:45:00,84.1,72.0,29.97,NNE,30,0.0,0.0,67,0.00,,,0.00,Wunderground v.1.15,2013-07-18 14:45:00,
2013-07-18 10:50:00,84.1,71.5,29.97,NNE,30,0.0,0.0,66,0.00,,,0.00,Wunderground v.1.15,2013-07-18 14:50:00,
2013-07-18 10:55:00,85.1,71.5,29.98,NNE,30,0.0,1.0,64,0.00,,,0.00,Wunderground v.1.15,2013-07-18 14:55:00,
2013-07-18 11:00:00,84.9,72.3,29.98,NE,35,1.0,1.0,66,0.00,,,0.00,Wunderground v.1.15,2013-07-18 15:00:00,
2013-07-18 11:06:00,85.1,72.0,29.98,NNE,33,0.0,0.0,65,0.00,,,0.00,Wunderground v.1.15,2013-07-18 15:06:00,
2013-07-18 11:11:00,85.7,74.8,29.97,NNE,29,1.0,1.0,70,0.00,,,0.00,Wunderground v.1.15,2013-07-18 15:11:00,
2013-07-18 11:16:00,86.5,75.5,29.97,NNE,29,0.0,0.0,70,0.00,,,0.00,Wunderground v.1.15,2013-07-18 15:16:00,
2013-07-18 11:21:00,87.0,71.9,29.97,NNE,26,0.0,4.0,61,0.00,,,0.00,Wunderground v.1.15,2013-07-18 15:21:00,
2013-07-18 11:26:00,87.6,73.0,29.96,NNE,26,0.0,1.0,62,0.00,,,0.00,Wunderground v.1.15,2013-07-18 15:26:00,
2013-07-18 11:32:00,88.0,72.9,29.96,NNE,26,0.0,1.0,61,0.00,,,0.00,Wunderground v.1.15,2013-07-18 15:32:00,
2013-07-18 11:37:00,87.6,70.0,29.96,SE,129,0.0,1.0,56,0.00,,,0.00,Wunderground v.1.15,2013-07-18 15:37:00,
2013-07-18 11:43:00,88.0,71.4,29.97,SE,129,0.0,1.0,58,0.00,,,0.00,Wunderground v.1.15,2013-07-18 15:43:00,
2013-07-18 11:48:00,89.0,72.3,29.97,ESE,122,1.0,1.0,58,0.00,,,0.00,Wunderground v.1.15,2013-07-18 15:48:00,
2013-07-18 11:53:00,89.9,73.1,29.97,ENE,60,0.0,2.0,58,0.00,,,0.00,Wunderground v.1.15,2013-07-18 15:53:00,
2013-07-18 11:58:00,89.3,71.0,29.97,ENE,60,0.0,0.0,55,0.00,,,0.00,Wunderground v.1.15,2013-07-18 15:58:00,
2013-07-18 12:03:00,90.1,73.8,29.97,NE,54,1.0,1.0,59,0.00,,,0.00,Wunderground v.1.15,2013-07-18 16:03:00,
2013-07-18 12:08:00,91.0,72.6,29.97,NE,52,1.0,2.0,55,0.00,,,0.00,Wunderground v.1.15,2013-07-18 16:08:00,
2013-07-18 12:13:00,91.0,72.6,29.96,NE,52,0.0,2.0,55,0.00,,,0.00,Wunderground v.1.15,2013-07-18 16:13:00,
2013-07-18 12:18:00,89.7,68.6,29.96,NE,52,0.0,1.0,50,0.00,,,0.00,Wunderground v.1.15,2013-07-18 16:18:00,
2013-07-18 12:23:00,88.4,67.4,29.96,NE,52,1.0,1.0,50,0.00,,,0.00,Wunderground v.1.15,2013-07-18 16:23:00,
2013-07-18 12:28:00,89.3,71.0,29.96,NE,52,0.0,1.0,55,0.00,,,0.00,Wunderground v.1.15,2013-07-18 16:28:00,
2013-07-18 12:33:00,89.9,72.6,29.96,NE,53,0.0,1.0,57,0.00,,,0.00,Wunderground v.1.15,2013-07-18 16:33:00,
2013-07-18 12:39:00,89.5,73.8,29.96,East,98,1.0,1.0,60,0.00,,,0.00,Wunderground v.1.15,2013-07-18 16:39:00,
2013-07-18 12:44:00,89.9,70.5,29.95,SE,142,0.0,2.0,53,0.00,,,0.00,Wunderground v.1.15,2013-07-18 16:44:00,
2013-07-18 12:49:00,89.9,69.3,29.95,SSE,153,0.0,0.0,51,0.00,,,0.00,Wunderground v.1.15,2013-07-18 16:49:00,
2013-07-18 12:54:00,90.3,71.4,29.95,SSE,153,0.0,0.0,54,0.00,,,0.00,Wunderground v.1.15,2013-07-18 16:54:00,
2013-07-18 13:00:00,90.1,71.8,29.95,SSE,153,0.0,0.0,55,0.00,,,0.00,Wunderground v.1.15,2013-07-18 17:00:00,
2013-07-18 13:05:00,88.8,71.6,29.95,SSE,153,0.0,0.0,57,0.00,,,0.00,Wunderground v.1.15,2013-07-18 17:05:00,
2013-07-18 13:10:00,88.8,71.6,29.95,SSE,153,0.0,1.0,57,0.00,,,0.00,Wunderground v.1.15,2013-07-18 17:10:00,
2013-07-18 13:15:00,89.0,74.8,29.95,SE,143,0.0,1.0,63,0.00,,,0.00,Wunderground v.1.15,2013-07-18 17:15:00,
2013-07-18 13:21:00,89.5,75.2,29.95,ENE,62,0.0,2.0,63,0.00,,,0.00,Wunderground v.1.15,2013-07-18 17:21:00,
2013-07-18 13:26:00,90.3,74.0,29.94,ENE,62,0.0,0.0,59,0.00,,,0.00,Wunderground v.1.15,2013-07-18 17:26:00,
2013-07-18 13:31:00,92.3,72.7,29.94,ENE,62,0.0,1.0,53,0.00,,,0.00,Wunderground v.1.15,2013-07-18 17:31:00,
2013-07-18 13:36:00,92.7,73.1,29.94,ENE,62,0.0,0.0,53,0.00,,,0.00,Wunderground v.1.15,2013-07-18 17:36:00,
2013-07-18 13:41:00,92.7,73.1,29.94,ENE,62,0.0,0.0,53,0.00,,,0.00,Wunderground v.1.15,2013-07-18 17:41:00,
2013-07-18 13:46:00,92.5,73.4,29.94,ESE,119,0.0,0.0,54,0.00,,,0.00,Wunderground v.1.15,2013-07-18 17:46:00,
2013-07-18 13:51:00,93.2,72.4,29.94,ESE,119,0.0,1.0,51,0.00,,,0.00,Wunderground v.1.15,2013-07-18 17:51:00,
2013-07-18 13:56:00,94.3,76.7,29.93,ENE,76,1.0,2.0,57,0.00,,,0.00,Wunderground v.1.15,2013-07-18 17:56:00,
2013-07-18 14:01:00,92.1,71.4,29.93,ENE,74,0.0,2.0,51,0.00,,,0.00,Wunderground v.1.15,2013-07-18 18:01:00,
2013-07-18 14:06:00,92.5,71.7,29.93,SE,126,0.0,1.0,51,0.00,,,0.00,Wunderground v.1.15,2013-07-18 18:06:00,
2013-07-18 14:11:00,92.3,71.6,29.93,SE,132,0.0,2.0,51,0.00,,,0.00,Wunderground v.1.15,2013-07-18 18:11:00,
2013-07-18 14:16:00,92.1,71.4,29.93,South,179,0.0,0.0,51,0.00,,,0.00,Wunderground v.1.15,2013-07-18 18:16:00,
2013-07-18 14:22:00,91.4,70.7,29.93,SE,145,0.0,1.0,51,0.00,,,0.00,Wunderground v.1.15,2013-07-18 18:22:00,
2013-07-18 14:27:00,92.1,72.5,29.92,SSE,159,0.0,1.0,53,0.00,,,0.00,Wunderground v.1.15,2013-07-18 18:27:00,
2013-07-18 14:32:00,91.8,72.2,29.92,SE,135,0.0,1.0,53,0.00,,,0.00,Wunderground v.1.15,2013-07-18 18:32:00,
2013-07-18 14:37:00,91.4,71.9,29.92,SE,134,0.0,0.0,53,0.00,,,0.00,Wunderground v.1.15,2013-07-18 18:37:00,
2013-07-18 14:42:00,91.2,70.5,29.92,SE,135,0.0,1.0,51,0.00,,,0.00,Wunderground v.1.15,2013-07-18 18:42:00,
2013-07-18 14:47:00,90.1,70.7,29.92,South,177,0.0,0.0,53,0.00,,,0.00,Wunderground v.1.15,2013-07-18 18:47:00,
2013-07-18 14:52:00,90.1,73.8,29.92,South,177,0.0,0.0,59,0.00,,,0.00,Wunderground v.1.15,2013-07-18 18:52:00,
2013-07-18 14:58:00,89.3,73.1,29.91,NNE,19,0.0,2.0,59,0.00,,,0.00,Wunderground v.1.15,2013-07-18 18:58:00,
2013-07-18 15:03:00,89.5,73.8,29.91,South,182,0.0,2.0,60,0.00,,,0.00,Wunderground v.1.15,2013-07-18 19:03:00,
2013-07-18 15:08:00,91.4,73.0,29.91,SE,145,0.0,1.0,55,0.00,,,0.00,Wunderground v.1.15,2013-07-18 19:08:00,
2013-07-18 15:13:00,91.6,74.7,29.91,South,172,0.0,2.0,58,0.00,,,0.00,Wunderground v.1.15,2013-07-18 19:13:00,
2013-07-18 15:18:00,91.4,75.1,29.91,South,172,0.0,0.0,59,0.00,,,0.00,Wunderground v.1.15,2013-07-18 19:18:00,
2013-07-18 15:23:00,91.2,74.9,29.91,NNE,30,1.0,1.0,59,0.00,,,0.00,Wunderground v.1.15,2013-07-18 19:23:00,
2013-07-18 15:28:00,92.5,74.5,29.90,NNE,32,0.0,1.0,56,0.00,,,0.00,Wunderground v.1.15,2013-07-18 19:28:00,
2013-07-18 15:33:00,92.1,73.1,29.90,NE,52,0.0,1.0,54,0.00,,,0.00,Wunderground v.1.15,2013-07-18 19:33:00,
2013-07-18 15:39:00,92.3,72.1,29.90,NE,45,0.0,1.0,52,0.00,,,0.00,Wunderground v.1.15,2013-07-18 19:39:00,
2013-07-18 15:44:00,91.6,74.2,29.90,NE,45,0.0,0.0,57,0.00,,,0.00,Wunderground v.1.15,2013-07-18 19:44:00,
2013-07-18 15:49:00,91.0,74.2,29.90,SE,128,0.0,1.0,58,0.00,,,0.00,Wunderground v.1.15,2013-07-18 19:49:00,
2013-07-18 15:54:00,91.0,74.2,29.89,SE,128,2.0,2.0,58,0.00,,,0.00,Wunderground v.1.15,2013-07-18 19:54:00,
2013-07-18 16:00:00,90.1,73.3,29.89,NE,52,0.0,2.0,58,0.00,,,0.00,Wunderground v.1.15,2013-07-18 20:00:00,
2013-07-18 16:05:00,89.9,72.6,29.89,NE,42,0.0,0.0,57,0.00,,,0.00,Wunderground v.1.15,2013-07-18 20:05:00,
2013-07-18 16:10:00,88.6,74.9,29.89,NE,40,0.0,0.0,64,0.00,,,0.00,Wunderground v.1.15,2013-07-18 20:10:00,
2013-07-18 16:15:00,88.2,75.9,29.89,NE,40,0.0,1.0,67,0.00,,,0.00,Wunderground v.1.15,2013-07-18 20:15:00,
2013-07-18 16:21:00,87.6,76.6,29.89,NE,40,0.0,1.0,70,0.00,,,0.00,Wunderground v.1.15,2013-07-18 20:21:00,
2013-07-18 16:26:00,87.2,77.5,29.90,NE,40,1.0,1.0,73,0.00,,,0.00,Wunderground v.1.15,2013-07-18 20:26:00,
2013-07-18 16:31:00,86.7,77.0,29.90,North,358,1.0,6.0,73,0.00,,,0.00,Wunderground v.1.15,2013-07-18 20:31:00,
2013-07-18 16:36:00,85.7,73.9,29.90,North,2,0.0,1.0,68,0.00,,,0.00,Wunderground v.1.15,2013-07-18 20:36:00,
2013-07-18 16:41:00,84.5,75.3,29.90,North,2,1.0,4.0,74,0.00,,,0.00,Wunderground v.1.15,2013-07-18 20:41:00,
2013-07-18 16:47:00,84.3,75.1,29.90,North,5,0.0,1.0,74,0.00,,,0.00,Wunderground v.1.15,2013-07-18 20:47:00,
2013-07-18 16:52:00,84.0,75.6,29.90,North,4,0.0,1.0,76,0.00,,,0.00,Wunderground v.1.15,2013-07-18 20:52:00,
2013-07-18 16:57:00,83.4,74.6,29.90,North,4,0.0,1.0,75,0.00,,,0.00,Wunderground v.1.15,2013-07-18 20:57:00,
2013-07-18 17:02:00,82.6,74.3,29.90,North,4,0.0,1.0,76,0.00,,,0.00,Wunderground v.1.15,2013-07-18 21:02:00,
2013-07-18 17:07:00,82.2,74.7,29.90,North,4,0.0,0.0,78,0.00,,,0.00,Wunderground v.1.15,2013-07-18 21:07:00,
2013-07-18 17:12:00,81.8,74.6,29.91,North,4,0.0,1.0,79,0.00,,,0.00,Wunderground v.1.15,2013-07-18 21:12:00,
2013-07-18 17:17:00,81.6,74.1,29.91,North,4,1.0,2.0,78,0.00,,,0.00,Wunderground v.1.15,2013-07-18 21:17:00,
2013-07-18 17:23:00,81.6,73.3,29.91,North,9,1.0,2.0,76,0.00,,,0.00,Wunderground v.1.15,2013-07-18 21:23:00,
2013-07-18 17:28:00,81.6,72.5,29.90,North,5,0.0,4.0,74,0.00,,,0.00,Wunderground v.1.15,2013-07-18 21:28:00,
2013-07-18 17:33:00,81.2,70.5,29.90,NNE,30,0.0,4.0,70,0.00,,,0.00,Wunderground v.1.15,2013-07-18 21:33:00,
2013-07-18 17:38:00,80.9,71.4,29.90,NNE,30,0.0,1.0,73,0.00,,,0.00,Wunderground v.1.15,2013-07-18 21:38:00,
2013-07-18 17:43:00,80.1,71.5,29.90,NNE,30,0.0,1.0,75,0.00,,,0.00,Wunderground v.1.15,2013-07-18 21:43:00,
2013-07-18 17:48:00,79.0,71.9,29.90,NNE,30,0.0,1.0,79,0.00,,,0.00,Wunderground v.1.15,2013-07-18 21:48:00,
2013-07-18 17:53:00,78.5,71.4,29.90,NNE,30,0.0,1.0,79,0.00,,,0.00,Wunderground v.1.15,2013-07-18 21:53:00,
2013-07-18 17:59:00,78.3,71.6,29.91,NNE,30,0.0,0.0,80,0.00,,,0.00,Wunderground v.1.15,2013-07-18 21:59:00,
2013-07-18 18:04:00,78.3,70.5,29.91,NNE,30,0.0,0.0,77,0.00,,,0.00,Wunderground v.1.15,2013-07-18 22:04:00,
2013-07-18 18:09:00,78.1,71.4,29.91,NNE,30,0.0,1.0,80,0.00,,,0.00,Wunderground v.1.15,2013-07-18 22:09:00,
2013-07-18 18:14:00,77.7,71.4,29.92,NNE,30,0.0,0.0,81,0.00,,,0.00,Wunderground v.1.15,2013-07-18 22:14:00,
2013-07-18 18:19:00,77.4,71.5,29.92,NNE,29,0.0,1.0,82,0.00,,,0.00,Wunderground v.1.15,2013-07-18 22:19:00,
2013-07-18 18:24:00,77.0,71.4,29.93,NW,307,1.0,1.0,83,0.00,,,0.00,Wunderground v.1.15,2013-07-18 22:24:00,
2013-07-18 18:29:00,76.3,72.1,29.93,NW,307,0.0,1.0,87,0.00,,,0.00,Wunderground v.1.15,2013-07-18 22:29:00,
2013-07-18 18:34:00,76.0,73.2,29.93,NW,307,0.0,0.0,91,0.00,,,0.00,Wunderground v.1.15,2013-07-18 22:34:00,
2013-07-18 18:40:00,75.4,72.9,29.95,South,190,0.0,1.0,92,0.00,,,0.00,Wunderground v.1.15,2013-07-18 22:40:00,
2013-07-18 18:45:00,75.4,72.9,29.95,South,190,0.0,0.0,92,0.00,,,0.00,Wunderground v.1.15,2013-07-18 22:45:00,
2013-07-18 18:50:00,75.1,73.9,29.95,South,189,0.0,0.0,96,0.00,,,0.00,Wunderground v.1.15,2013-07-18 22:50:00,
2013-07-18 18:55:00,75.3,74.4,29.95,South,189,0.0,0.0,97,0.00,,,0.00,Wunderground v.1.15,2013-07-18 22:55:00,
2013-07-18 19:01:00,75.3,74.4,29.95,South,189,0.0,0.0,97,0.00,,,0.00,Wunderground v.1.15,2013-07-18 23:01:00,
2013-07-18 19:06:00,74.9,74.0,29.95,South,189,0.0,0.0,97,0.00,,,0.00,Wunderground v.1.15,2013-07-18 23:06:00,
2013-07-18 19:11:00,74.7,74.1,29.95,South,189,0.0,0.0,98,0.00,,,0.00,Wunderground v.1.15,2013-07-18 23:11:00,
2013-07-18 19:16:00,74.7,74.1,29.95,South,189,0.0,0.0,98,0.00,,,0.00,Wunderground v.1.15,2013-07-18 23:16:00,
2013-07-18 19:21:00,74.7,74.1,29.95,South,189,0.0,0.0,98,0.00,,,0.00,Wunderground v.1.15,2013-07-18 23:21:00,
2013-07-18 19:26:00,74.7,74.1,29.93,South,189,0.0,0.0,98,0.00,,,0.00,Wunderground v.1.15,2013-07-18 23:26:00,
2013-07-18 19:31:00,74.4,73.8,29.93,South,189,0.0,1.0,98,0.00,,,0.00,Wunderground v.1.15,2013-07-18 23:31:00,
2013-07-18 19:37:00,74.4,73.8,29.93,South,189,0.0,0.0,98,0.00,,,0.00,Wunderground v.1.15,2013-07-18 23:37:00,
2013-07-18 19:42:00,74.4,74.1,29.94,South,189,0.0,0.0,99,0.00,,,0.00,Wunderground v.1.15,2013-07-18 23:42:00,
2013-07-18 19:47:00,74.4,74.1,29.94,South,189,0.0,0.0,99,0.00,,,0.00,Wunderground v.1.15,2013-07-18 23:47:00,
2013-07-18 19:52:00,74.4,74.1,29.94,South,189,0.0,0.0,99,0.00,,,0.00,Wunderground v.1.15,2013-07-18 23:52:00,
2013-07-18 19:57:00,74.4,74.1,29.93,South,189,0.0,0.0,99,0.00,,,0.00,Wunderground v.1.15,2013-07-18 23:57:00,
2013-07-18 20:02:00,73.9,73.6,29.93,South,189,0.0,0.0,99,0.00,,,0.00,Wunderground v.1.15,2013-07-19 00:02:00,
2013-07-18 20:07:00,73.7,73.4,29.93,South,189,0.0,0.0,99,0.00,,,0.00,Wunderground v.1.15,2013-07-19 00:07:00,
2013-07-18 20:13:00,73.7,73.4,29.94,South,189,0.0,0.0,99,0.00,,,0.00,Wunderground v.1.15,2013-07-19 00:13:00,
2013-07-18 20:18:00,74.0,74.0,29.94,South,189,0.0,0.0,100,0.00,,,0.00,Wunderground v.1.15,2013-07-19 00:18:00,
2013-07-18 20:23:00,73.9,73.9,29.94,South,189,0.0,0.0,100,0.00,,,0.00,Wunderground v.1.15,2013-07-19 00:23:00,
2013-07-18 20:28:00,74.0,74.0,29.93,South,189,0.0,0.0,100,0.00,,,0.00,Wunderground v.1.15,2013-07-19 00:28:00,
2013-07-18 20:33:00,73.9,73.9,29.93,South,189,0.0,0.0,100,0.00,,,0.00,Wunderground v.1.15,2013-07-19 00:33:00,
2013-07-18 20:38:00,73.7,73.7,29.93,South,189,0.0,0.0,100,0.00,,,0.00,Wunderground v.1.15,2013-07-19 00:38:00,
2013-07-18 20:43:00,73.9,73.9,29.96,South,189,0.0,1.0,100,0.00,,,0.00,Wunderground v.1.15,2013-07-19 00:43:00,
2013-07-18 20:48:00,73.7,73.7,29.96,South,191,0.0,1.0,100,0.00,,,0.00,Wunderground v.1.15,2013-07-19 00:48:00,
2013-07-18 20:54:00,73.9,73.9,29.96,South,191,0.0,0.0,100,0.00,,,0.00,Wunderground v.1.15,2013-07-19 00:54:00,
2013-07-18 20:59:00,73.9,73.9,29.98,SE,125,0.0,1.0,100,0.00,,,0.00,Wunderground v.1.15,2013-07-19 00:59:00,
2013-07-18 21:04:00,73.9,73.9,29.98,SE,125,0.0,0.0,100,0.00,,,0.00,Wunderground v.1.15,2013-07-19 01:04:00,
2013-07-18 21:09:00,73.9,73.9,29.95,SE,125,0.0,0.0,100,0.00,,,0.00,Wunderground v.1.15,2013-07-19 01:09:00,
2013-07-18 21:14:00,73.9,73.9,29.95,SE,125,0.0,0.0,100,0.00,,,0.00,Wunderground v.1.15,2013-07-19 01:14:00,
2013-07-18 21:19:00,73.7,73.7,29.95,SE,125,0.0,0.0,100,0.00,,,0.00,Wunderground v.1.15,2013-07-19 01:19:00,
2013-07-18 21:25:00,73.5,73.5,29.95,SE,125,0.0,0.0,100,0.00,,,0.00,Wunderground v.1.15,2013-07-19 01:25:00,
2013-07-18 21:30:00,73.7,73.7,29.95,SE,125,0.0,0.0,100,0.00,,,0.00,Wunderground v.1.15,2013-07-19 01:30:00,
2013-07-18 21:35:00,73.5,73.5,29.95,SE,125,0.0,0.0,100,0.00,,,0.00,Wunderground v.1.15,2013-07-19 01:35:00,
2013-07-18 21:40:00,73.7,73.7,29.93,SE,125,0.0,0.0,100,0.00,,,0.00,Wunderground v.1.15,2013-07-19 01:40:00,
2013-07-18 21:45:00,73.5,73.5,29.93,SE,125,0.0,0.0,100,0.00,,,0.00,Wunderground v.1.15,2013-07-19 01:45:00,
2013-07-18 21:50:00,73.3,73.3,29.93,SE,125,0.0,0.0,100,0.00,,,0.00,Wunderground v.1.15,2013-07-19 01:50:00,
2013-07-18 21:56:00,73.5,73.5,29.94,SE,125,0.0,0.0,100,0.00,,,0.00,Wunderground v.1.15,2013-07-19 01:56:00,
2013-07-18 22:01:00,73.3,73.3,29.94,SE,125,0.0,0.0,100,0.00,,,0.00,Wunderground v.1.15,2013-07-19 02:01:00,
2013-07-18 22:06:00,73.3,73.3,29.94,SE,125,0.0,0.0,100,0.00,,,0.00,Wunderground v.1.15,2013-07-19 02:06:00,
2013-07-18 22:11:00,73.2,73.2,29.92,SE,125,0.0,0.0,100,0.00,,,0.00,Wunderground v.1.15,2013-07-19 02:11:00,
2013-07-18 22:16:00,73.3,73.3,29.92,SE,125,0.0,0.0,100,0.00,,,0.00,Wunderground v.1.15,2013-07-19 02:16:00,
2013-07-18 22:21:00,73.2,73.2,29.92,SE,125,0.0,0.0,100,0.00,,,0.00,Wunderground v.1.15,2013-07-19 02:21:00,
2013-07-18 22:26:00,73.3,73.3,29.93,SE,125,0.0,0.0,100,0.00,,,0.00,Wunderground v.1.15,2013-07-19 02:26:00,
2013-07-18 22:31:00,73.3,73.3,29.93,SE,125,0.0,0.0,100,0.00,,,0.00,Wunderground v.1.15,2013-07-19 02:31:00,
2013-07-18 22:36:00,73.3,73.3,29.93,SE,125,0.0,0.0,100,0.00,,,0.00,Wunderground v.1.15,2013-07-19 02:36:00,
2013-07-18 22:41:00,73.3,73.3,29.93,SE,125,0.0,0.0,100,0.00,,,0.00,Wunderground v.1.15,2013-07-19 02:41:00,
2013-07-18 22:46:00,73.2,73.2,29.93,SE,125,0.0,0.0,100,0.00,,,0.00,Wunderground v.1.15,2013-07-19 02:46:00,
2013-07-18 22:51:00,73.2,73.2,29.93,SE,125,0.0,0.0,100,0.00,,,0.00,Wunderground v.1.15,2013-07-19 02:51:00,
2013-07-18 22:57:00,73.2,73.2,29.92,SE,125,0.0,0.0,100,0.00,,,0.00,Wunderground v.1.15,2013-07-19 02:57:00,
2013-07-18 23:02:00,73.0,73.0,29.92,SE,125,0.0,0.0,100,0.00,,,0.00,Wunderground v.1.15,2013-07-19 03:02:00,
2013-07-18 23:07:00,73.0,73.0,29.92,SE,125,0.0,0.0,100,0.00,,,0.00,Wunderground v.1.15,2013-07-19 03:07:00,
2013-07-18 23:13:00,72.8,72.8,29.92,SE,125,0.0,0.0,100,0.00,,,0.00,Wunderground v.1.15,2013-07-19 03:13:00,
2013-07-18 23:18:00,72.8,72.8,29.92,SE,125,0.0,0.0,100,0.00,,,0.00,Wunderground v.1.15,2013-07-19 03:18:00,
2013-07-18 23:23:00,72.7,72.7,29.92,SE,125,0.0,0.0,100,0.00,,,0.00,Wunderground v.1.15,2013-07-19 03:23:00,
2013-07-18 23:28:00,72.5,72.5,29.92,SE,125,0.0,0.0,100,0.00,,,0.00,Wunderground v.1.15,2013-07-19 03:28:00,
2013-07-18 23:33:00,72.5,72.5,29.92,SE,125,0.0,0.0,100,0.00,,,0.00,Wunderground v.1.15,2013-07-19 03:33:00,
2013-07-18 23:38:00,72.5,72.5,29.92,SE,125,0.0,0.0,100,0.00,,,0.00,Wunderground v.1.15,2013-07-19 03:38:00,
2013-07-18 23:44:00,72.1,72.1,29.92,SE,125,0.0,0.0,100,0.00,,,0.00,Wunderground v.1.15,2013-07-19 03:44:00,
2013-07-18 23:49:00,72.1,72.1,29.92,SE,125,0.0,0.0,100,0.00,,,0.00,Wunderground v.1.15,2013-07-19 03:49:00,
2013-07-18 23:54:00,72.0,72.0,29.92,SE,125,0.0,0.0,100,0.00,,,0.00,Wunderground v.1.15,2013-07-19 03:54:00,
2013-07-18 23:59:00,72.0,72.0,29.91,SE,125,0.0,0.0,100,0.00,,,0.00,Wunderground v.1.15,2013-07-19 03:59:00,